This is the latest recevied weather packets stored in our database for station/object NZ3C. If no packets are shown the sender has not sent any weather packets the latest 1 day(s).
| Time | Temp. | Humidity | Pressure | Rain* | Wind** | Luminosity | Snow |
|---|---|---|---|---|---|---|---|
| 1778024857 | 22.78° C | 58% | 1016.4 hPa | 0 mm | 0.89 m/s, 59° | 14 W/m² | - |
| 1778024555 | 22.78° C | 57% | 1016.3 hPa | 0 mm | 2.24 m/s, 195° | 18 W/m² | - |
| 1778024251 | 23.33° C | 57% | 1016.4 hPa | 0 mm | 3.58 m/s, 85° | 22 W/m² | - |
| 1778023950 | 23.33° C | 56% | 1016.3 hPa | 0 mm | 0.89 m/s, 285° | 21 W/m² | - |
| 1778023646 | 23.89° C | 54% | 1016.4 hPa | 0 mm | 0.89 m/s, 316° | 21 W/m² | - |
| 1778023344 | 23.89° C | 49% | 1016.3 hPa | 0 mm | 1.34 m/s, 95° | 23 W/m² | - |
| 1778023040 | 23.89° C | 47% | 1016.1 hPa | 0 mm | 0.89 m/s, 85° | 23 W/m² | - |
| 1778022740 | 24.44° C | 48% | 1016.1 hPa | 0 mm | 0.89 m/s, 204° | 26 W/m² | - |
| 1778022437 | 24.44° C | 48% | 1016.2 hPa | 0 mm | 0.45 m/s, 265° | 30 W/m² | - |
| 1778022134 | 24.44° C | 48% | 1016.1 hPa | 0 mm | 1.34 m/s, 199° | 27 W/m² | - |
| 1778021830 | 25° C | 48% | 1016.3 hPa | 0 mm | 0.89 m/s, 205° | 31 W/m² | - |
| 1778021527 | 25° C | 47% | 1016.3 hPa | 0 mm | 1.34 m/s, 80° | 39 W/m² | - |
| 1778021222 | 25° C | 46% | 1016.2 hPa | 0 mm | 0.89 m/s, 49° | 41 W/m² | - |
| 1778020920 | 25.56° C | 46% | 1016.1 hPa | 0 mm | 1.79 m/s, 226° | 70 W/m² | - |
| 1778020618 | 26.11° C | 45% | 1016.2 hPa | 0 mm | 1.34 m/s, 237° | 82 W/m² | - |
| 1778020313 | 25.56° C | 45% | 1016.2 hPa | 0 mm | 0.45 m/s, 263° | 108 W/m² | - |
| 1778020010 | 25.56° C | 45% | 1016.4 hPa | 0 mm | 1.79 m/s, 329° | 113 W/m² | - |
| 1778019706 | 25.56° C | 45% | 1016.4 hPa | 0 mm | 1.34 m/s, 288° | 138 W/m² | - |
| 1778019403 | 25.56° C | 45% | 1016.2 hPa | 0 mm | 0.89 m/s, 311° | 63 W/m² | - |
| 1778019100 | 26.11° C | 44% | 1016.3 hPa | 0 mm | 1.79 m/s, 266° | 73 W/m² | - |
| 1778018797 | 26.11° C | 44% | 1016.3 hPa | 0 mm | 0.89 m/s, 338° | 129 W/m² | - |
| 1778018495 | 26.11° C | 44% | 1016.2 hPa | 0 mm | 0.89 m/s, 65° | 153 W/m² | - |
| 1778018192 | 26.11° C | 44% | 1015.9 hPa | 0 mm | 0.45 m/s, 319° | 165 W/m² | - |
| 1778017890 | 26.11° C | 44% | 1015.9 hPa | 0 mm | 2.24 m/s, 340° | 88 W/m² | - |
| 1778017588 | 26.11° C | 43% | 1016 hPa | 0 mm | 3.13 m/s, 65° | 96 W/m² | - |
* Rain latest hour (hover to see other rain measurements)
** Current wind speed in m/s (hover to see current wind gust speed)